GW0641 Weather Reports


time (UTC)temp
F
wind
direction
speed
knots
gust
knots
rain 1hr
in
rain 24hr
in
rain mn
in
humidity
%
barometer
mb
20260503225824 61 266 2.6 7.0 0.00 0.00 0.00 30 1013.7
20260503225324 61 318 3.5 6.1 0.00 0.00 0.00 29 1013.6
20260503224805 61 311 3.5 6.1 0.00 0.00 0.00 31 1013.7
20260503224306 61 281 1.7 7.8 0.00 0.00 0.00 30 1013.7
20260503223824 61 264 4.3 7.8 0.00 0.00 0.00 30 1013.7
20260503223306 61 314 2.6 7.8 0.00 0.00 0.00 28 1013.7
20260503222809 62 219 2.6 5.2 0.00 0.00 0.00 32 1013.7
20260503222311 61 229 1.7 7.8 0.00 0.00 0.00 31 1013.7
20260503221813 62 230 2.6 7.8 0.00 0.00 0.00 29 1013.8
20260503221315 62 274 2.6 6.1 0.00 0.00 0.00 29 1013.7
20260503220815 62 278 1.7 4.3 0.00 0.00 0.00 30 1013.8
20260503220317 62 297 1.7 6.1 0.00 0.00 0.00 30 1013.7
20260503215815 62 245 3.5 6.1 0.00 0.00 0.00 28 1013.7
20260503215319 61 263 1.7 5.2 0.00 0.00 0.00 28 1013.6
20260503214842 61 303 3.5 6.1 0.00 0.00 0.00 29 1013.7
20260503214343 61 352 3.5 7.8 0.00 0.00 0.00 30 1013.7
20260503213825 62 257 4.3 7.8 0.00 0.00 0.00 28 1013.7
20260503213307 62 202 1.7 8.7 0.00 0.00 0.00 28 1013.7
20260503212808 62 291 1.7 8.7 0.00 0.00 0.00 31 1013.8
20260503212308 61 258 2.6 10.4 0.00 0.00 0.00 29 1013.8
20260503211808 62 276 2.6 5.2 0.00 0.00 0.00 29 1013.8
20260503210817 61 210 2.6 7.8 0.00 0.00 0.00 30 1014.0
20260503210318 61 257 4.3 7.8 0.00 0.00 0.00 31 1013.9
20260503205839 61 287 3.5 8.7 0.00 0.00 0.00 32 1014.0
20260503205320 61 275 3.5 10.4 0.00 0.00 0.00 30 1013.9
20260503204842 60 309 5.2 11.3 0.00 0.00 0.00 30 1014.0
20260503204321 61 290 6.1 11.3 0.00 0.00 0.00 31 1014.1
20260503203825 60 262 2.6 7.8 0.00 0.00 0.00 30 1014.1
20260503203325 60 292 3.5 12.2 0.00 0.00 0.00 29 1014.1
20260503202809 60 224 6.1 12.2 0.00 0.00 0.00 29 1014.1
20260503202331 61 259 4.3 9.6 0.00 0.00 0.00 32 1014.3
20260503201832 60 286 2.6 7.8 0.00 0.00 0.00 30 1014.4
20260503201332 60 90 2.6 7.8 0.00 0.00 0.00 30 1014.4
20260503200814 60 214 2.6 6.1 0.00 0.00 0.00 30 1014.5
20260503200335 60 207 3.5 7.0 0.00 0.00 0.00 30 1014.5
20260503195806 60 114 0.9 7.0 0.00 0.00 0.00 31 1014.6
20260503195307 60 276 3.5 13.0 0.00 0.00 0.00 33 1014.6
20260503194810 60 288 3.5 13.0 0.00 0.00 0.00 33 1014.8
20260503194310 59 114 4.3 8.7 0.00 0.00 0.00 31 1014.7
20260503193812 59 209 2.6 13.9 0.00 0.00 0.00 32 1014.8
20260503193315 59 249 8.7 13.9 0.00 0.00 0.00 30 1015.1
20260503192837 59 123 2.6 10.4 0.00 0.00 0.00 32 1015.1
20260503192318 59 298 1.7 10.4 0.00 0.00 0.00 31 1015.2
20260503191820 59 286 3.5 7.8 0.00 0.00 0.00 35 1015.2
20260503191323 58 278 4.3 9.6 0.00 0.00 0.00 30 1015.2
20260503190825 58 340 5.2 11.3 0.00 0.00 0.00 32 1015.3
20260503190328 59 269 6.1 11.3 0.00 0.00 0.00 33 1015.3
20260503185816 58 250 2.6 7.0 0.00 0.00 0.00 35 1015.3
20260503185317 58 51 4.3 9.6 0.00 0.00 0.00 32 1015.4
20260503184820 57 359 4.3 15.6 0.00 0.00 0.00 33 1015.6
20260503184320 57 267 7.8 15.6 0.00 0.00 0.00 32 1015.7
20260503183823 58 281 5.2 11.3 0.00 0.00 0.00 36 1015.8
20260503183323 58 23 4.3 9.6 0.00 0.00 0.00 34 1016.0
20260503182825 59 280 3.5 12.2 0.00 0.00 0.00 38 1015.9
20260503182307 58 1 7.0 12.2 0.00 0.00 0.00 38 1016.0
20260503181830 57 269 3.5 5.2 0.00 0.00 0.00 33 1015.9
20260503181310 57 249 2.6 9.6 0.00 0.00 0.00 33 1016.0
20260503180811 56 248 3.5 13.0 0.00 0.00 0.00 40 1016.0
20260503180314 56 221 7.0 13.0 0.00 0.00 0.00 36 1016.0
20260503175832 56 295 4.3 11.3 0.00 0.00 0.00 37 1016.0
20260503175312 57 229 4.3 9.6 0.00 0.00 0.00 33 1016.1
20260503174812 56 271 4.3 9.6 0.00 0.00 0.00 37 1016.0
20260503174315 56 25 1.7 13.9 0.00 0.00 0.00 37 1016.1
20260503173817 56 269 7.0 13.9 0.00 0.00 0.00 36 1016.2
20260503173320 55 295 3.5 11.3 0.00 0.00 0.00 37 1016.1
20260503172821 56 254 7.0 11.3 0.00 0.00 0.00 35 1016.1
20260503172322 55 258 3.5 9.6 0.00 0.00 0.00 38 1016.1
20260503171824 55 279 4.3 9.6 0.00 0.00 0.00 40 1016.2
20260503171326 54 293 2.6 8.7 0.00 0.00 0.00 41 1016.2
20260503170809 55 272 5.2 12.2 0.00 0.00 0.00 39 1016.3
20260503170313 55 257 5.2 8.7 0.00 0.00 0.00 39 1016.4
20260503150824 50 288 3.5 7.0 0.00 0.00 0.00 47 1017.7
20260503150325 49 219 0.9 9.6 0.00 0.00 0.00 46 1017.7
20260503140315 46 255 6.1 11.3 0.00 0.00 0.00 49 1017.8
20260503131313 43 295 2.6 11.3 0.00 0.00 0.00 53 1017.7
20260503130814 43 332 1.7 11.3 0.00 0.00 0.00 54 1017.6
20260503130316 43 272 3.5 7.8 0.00 0.00 0.00 56 1017.7
20260503110322 32 337 0.0 2.6 0.00 0.00 0.00 86 1016.9
20260503090310 35 288 0.9 2.6 0.00 0.00 0.00 78 1015.1
20260503081339 33 156 0.0 0.0 0.00 0.00 0.00 85 1014.8
20260503080841 33 125 0.0 0.0 0.00 0.00 0.00 86 1014.7
20260503080321 34 78 0.0 0.0 0.00 0.00 0.00 86 1014.6
20260503072822 34 335 1.7 2.6 0.00 0.00 0.00 86 1014.5
20260503072323 35 349 0.9 2.6 0.00 0.00 0.00 85 1014.4
20260503071827 35 110 0.0 1.7 0.00 0.00 0.00 84 1014.3
20260503071328 36 81 0.0 1.7 0.00 0.00 0.00 83 1014.3
20260503070850 36 37 0.9 2.6 0.00 0.00 0.00 81 1014.2
20260503070329 37 307 0.9 9.6 0.00 0.00 0.00 79 1014.1
20260503054826 35 3 0.0 1.7 0.00 0.00 0.00 88 1014.3
20260503054327 35 352 0.0 0.9 0.00 0.00 0.00 87 1014.3
20260503053830 35 291 0.0 0.9 0.00 0.00 0.00 87 1014.3
20260503053311 34 153 0.9 1.7 0.00 0.00 0.00 87 1014.3
20260503052813 34 39 0.9 2.6 0.00 0.00 0.00 86 1014.4
20260503052317 35 41 2.6 2.6 0.00 0.00 0.00 85 1014.4
20260503051839 35 212 0.0 1.7 0.00 0.00 0.00 84 1014.4
20260503051320 35 155 0.0 2.6 0.00 0.00 0.00 84 1014.4
20260503050824 35 268 0.9 2.6 0.00 0.00 0.00 84 1014.4
20260503050325 35 246 0.0 2.6 0.00 0.00 0.00 85 1014.3
20260503045844 35 283 0.9 4.3 0.00 0.00 0.00 85 1014.3
20260503045326 34 262 2.6 4.3 0.00 0.00 0.00 87 1014.3
20260503044827 34 249 0.0 2.6 0.00 0.00 0.00 86 1014.3
20260503044328 35 296 0.9 2.6 0.00 0.00 0.00 86 1014.3
20260503043829 35 231 0.0 0.0 0.00 0.00 0.00 85 1014.3
20260503043311 35 309 0.0 3.5 0.00 0.00 0.00 85 1014.3
20260503042815 35 309 1.7 3.5 0.00 0.00 0.00 84 1014.3
20260503042315 35 103 0.0 0.9 0.00 0.00 0.00 84 1014.1
20260503041818 36 100 0.0 0.9 0.00 0.00 0.00 82 1014.2
20260503041318 37 128 0.0 0.9 0.00 0.00 0.00 80 1014.2
20260503040841 37 128 0.0 1.7 0.00 0.00 0.00 80 1014.2
20260503040323 37 298 0.0 1.7 0.00 0.00 0.00 80 1014.2
20260503035835 37 110 0.0 2.6 0.00 0.00 0.00 79 1014.1
20260503035317 37 281 0.9 3.5 0.00 0.00 0.00 78 1014.1
20260503034839 37 248 1.7 3.5 0.00 0.00 0.00 79 1014.3
20260503034319 37 256 1.7 3.5 0.00 0.00 0.00 77 1014.2
20260503033822 37 297 0.9 4.3 0.00 0.00 0.00 78 1014.3
20260503033324 37 297 2.6 4.3 0.00 0.00 0.00 78 1014.2
20260503032846 37 264 2.6 3.5 0.00 0.00 0.00 78 1014.3
20260503032348 37 252 0.9 3.5 0.00 0.00 0.00 77 1014.2
20260503031828 37 258 1.7 2.6 0.00 0.00 0.00 78 1014.1
20260503031329 38 285 0.9 3.5 0.00 0.00 0.00 77 1014.0
20260503030830 38 244 1.7 3.5 0.00 0.00 0.00 77 1014.0
20260503030331 38 302 1.7 2.6 0.00 0.00 0.00 75 1014.0
20260503025829 38 250 0.9 2.6 0.00 0.00 0.00 75 1014.0
20260503025330 39 277 1.7 3.5 0.00 0.00 0.00 74 1014.0
20260503024811 39 269 1.7 3.5 0.00 0.00 0.00 73 1014.0
20260503024315 39 269 1.7 3.5 0.00 0.00 0.00 72 1014.0
20260503023816 40 233 1.7 3.5 0.00 0.00 0.00 71 1014.1
20260503023318 40 265 1.7 3.5 0.00 0.00 0.00 72 1014.1
20260503022820 40 251 0.9 2.6 0.00 0.00 0.00 72 1014.2
20260503022322 40 270 1.7 4.3 0.00 0.00 0.00 71 1014.1
20260503021824 40 270 1.7 4.3 0.00 0.00 0.00 69 1014.0
20260503021325 40 264 1.7 3.5 0.00 0.00 0.00 71 1014.0
20260503020827 40 250 1.7 2.6 0.00 0.00 0.00 69 1014.0
20260503020328 41 277 0.9 2.6 0.00 0.00 0.00 68 1013.9
20260503015829 41 290 1.7 2.6 0.00 0.00 0.00 67 1013.8
20260503015330 42 297 1.7 3.5 0.00 0.00 0.00 68 1013.8
20260503014830 43 295 0.9 3.5 0.00 0.00 0.00 64 1013.8
20260503014313 44 295 1.7 7.0 0.00 0.00 0.00 60 1013.8
20260503013813 44 285 1.7 7.0 0.00 0.00 0.00 60 1013.7
20260503013315 44 271 2.6 3.5 0.00 0.00 0.00 59 1013.7
20260503012817 44 293 2.6 3.5 0.00 0.00 0.00 58 1013.7
20260503012322 44 281 1.7 4.3 0.00 0.00 0.00 58 1013.6
20260503011821 44 274 2.6 4.3 0.00 0.00 0.00 58 1013.7
20260503011322 44 267 1.7 3.5 0.00 0.00 0.00 59 1013.7
20260503010844 45 251 0.9 2.6 0.00 0.00 0.00 58 1013.5
20260503010345 45 273 0.9 3.5 0.00 0.00 0.00 57 1013.5
20260503005804 46 285 1.7 6.1 0.00 0.00 0.00 56 1013.4
20260503005327 46 267 1.7 6.1 0.00 0.00 0.00 54 1013.3
20260503004809 46 278 1.7 5.2 0.00 0.00 0.00 54 1013.2
20260503004312 46 283 1.7 5.2 0.00 0.00 0.00 54 1013.2
20260503003814 47 290 0.9 4.3 0.00 0.00 0.00 53 1013.1
20260503003337 47 269 1.7 4.3 0.00 0.00 0.00 51 1013.0
20260503002818 47 260 0.9 4.3 0.00 0.00 0.00 50 1013.0
20260503002321 48 276 2.6 4.3 0.00 0.00 0.00 50 1012.9
20260503001823 48 291 0.9 3.5 0.00 0.00 0.00 49 1012.9
20260503001323 48 281 0.9 6.1 0.00 0.00 0.00 49 1012.8
20260503000806 49 299 2.6 6.1 0.00 0.00 0.00 48 1012.7
20260503000307 49 262 0.9 4.3 0.00 0.00 0.00 48 1012.6
20260502235825 49 271 0.9 4.3 0.00 0.00 0.00 47 1012.6
20260502235327 49 261 1.7 2.6 0.00 0.00 0.00 47 1012.6
20260502234808 49 281 0.9 5.2 0.00 0.00 0.00 49 1012.5
20260502234309 49 253 1.7 5.2 0.00 0.00 0.00 47 1012.4
20260502233832 50 300 1.7 3.5 0.00 0.00 0.00 49 1012.4
20260502233313 50 295 1.7 4.3 0.00 0.00 0.00 49 1012.3
20260502232835 50 293 1.7 4.3 0.00 0.00 0.00 49 1012.3
20260502232333 50 286 1.7 7.8 0.00 0.00 0.00 48 1012.2
20260502231817 51 300 3.5 7.8 0.00 0.00 0.00 47 1012.1
20260502231338 51 270 2.6 10.4 0.00 0.00 0.00 46 1012.1
20260502230820 52 283 5.2 10.4 0.00 0.00 0.00 45 1012.1
20260502230323 52 293 4.3 7.0 0.00 0.00 0.00 44 1012.1